Regional Weather Roundup
Issued by NWS

Home | Current Version | Previous Version | Text Only | Print | Product List | Glossary Off
Versions: 1 2 3 4 5 6 7 8 9 10 11 12 13 14 15 16 17 18 19 20 21 22 23 24 25 26 27 28 29 30 31 32 33 34 35 36 37 38 39 40 41 42 43 44 45 46 47 48 49 50

000
ASUS43 KBIS 021410
RWRND

NORTH DAKOTA REGIONAL WEATHER ROUNDUP
NATIONAL WEATHER SERVICE BISMARCK ND
900 AM CDT WED SEP 02 2015

NOTE: "FAIR" INDICATES FEW OR NO CLOUDS BELOW 12,000 FEET WITH NO
SIGNIFICANT WEATHER AND/OR OBSTRUCTIONS TO VISIBILITY.


NDZ001>003-009>011-017-021500-
NORTHWEST NORTH DAKOTA

CITY           SKY/WX    TMP DP  RH WIND       PRES   REMARKS
WILLISTON      MOSUNNY   69  53  56 NE3       29.77S
MINOT          SUNNY     66  62  87 SW5       29.78F
MINOT AFB      SUNNY     66  66 100 CALM      29.78S
$$

NDZ018>021-031>035-040>046-021500-
SOUTHWEST NORTH DAKOTA

CITY           SKY/WX    TMP DP  RH WIND       PRES   REMARKS
BISMARCK       FOG       62  62 100 E5        29.82R VSB 1/4
DICKINSON      MOSUNNY   68  57  68 E9        29.78F
GARRISON         N/A     67  63  87 CALM      29.80F
HETTINGER ARPT MOSUNNY   61  55  81 CALM      29.83R
$$

NDZ004>008-012>016-024-026-027-054-021500-
NORTHEAST NORTH DAKOTA

CITY           SKY/WX    TMP DP  RH WIND       PRES   REMARKS
GRAND FORKS    PTSUNNY   69  67  93 S7        29.83S FOG
GRND FRKS AFB  CLOUDY    69  69  99 S9        29.83S
DEVILS LAKE    SUNNY     70  61  73 SE8       29.81F
$$

NDZ022-023-025-028>030-036>039-047>053-021500-
SOUTHEAST NORTH DAKOTA

CITY           SKY/WX    TMP DP  RH WIND       PRES   REMARKS
FARGO          SUNNY     71  63  75 SE14      29.85S
JAMESTOWN      SUNNY     68  64  87 S8        29.83R
$$



USA.gov is the U.S. government's official web portal to all federal, state and local government web resources and services.